Temperature
20 20 19 20 20 19 19 19 19 19 19 19 19 18 18 18 18 18 18 18 18 18 18 18 18 18 17 17 17 17 17 17 17 17 16 16 16 15 15 15 15 15 15
20 20 20 19 19 19 19 19 19 19 19 19 19 18 18 18 18 18 18 18 18 18 17 17 17 17 17 17 17 17 17 17 17 16 16 16 16 16 15 15 15 15 15
20 20 19 19 19 19 19 19 19 19 19 19 19 19 18 18 18 18 18 18 18 17 17 17 17 17 17 17 17 17 17 17 16 16 16 16 16 15 15 15 15 14 14
20 20 19 19 19 19 19 19 19 19 19 19 19 19 19 18 18 18 18 18 17 17 17 17 17 17 17 17 17 17 17 17 16 16 16 16 16 15 15 15 15 14 14
21 20 19 19 19 19 19 19 18 18 18 19 19 19 19 18 18 18 18 18 18 18 17 17 17 17 17 17 17 17 17 16 16 16 16 15 15 15 15 15 14 14 14
21 20 20 19 19 19 19 18 18 18 18 18 18 18 18 18 18 18 18 18 18 18 17 17 17 17 17 17 17 17 16 16 16 16 16 16 15 15 15 15 14 14 14
21 20 20 19 19 19 19 18 18 18 18 18 18 18 18 19 19 18 18 18 18 18 18 17 17 17 17 17 17 17 16 16 16 16 16 16 15 15 15 15 14 14 14
20 20 20 19 19 19 18 18 18 18 18 18 18 18 18 18 19 19 18 18 18 18 18 17 17 17 17 17 17 17 16 16 16 16 16 16 15 15 15 15 14 14 14
20 20 20 19 19 19 18 18 18 18 18 18 18 18 18 18 18 18 18 18 18 18 18 17 17 17 17 17 16 16 16 16 16 16 15 15 15 15 15 14 14 14 14
20 20 20 19 19 19 19 18 18 18 18 18 18 18 18 18 18 18 18 18 17 17 17 17 17 17 17 16 16 16 16 16 15 15 15 15 15 15 15 14 14 14 13
20 19 19 19 19 19 19 18 18 18 18 18 18 18 18 18 18 18 18 17 17 17 16 16 17 17 17 16 16 16 16 15 15 15 15 15 15 15 14 14 14 14 14
19 19 19 19 19 18 18 18 18 18 18 17 17 17 17 17 17 17 17 17 17 16 16 16 16 16 16 16 16 16 15 15 15 14 14 14 14 14 14 14 14 14 14
19 19 19 18 18 18 18 18 18 18 17 17 17 17 17 17 17 17 17 17 17 16 16 16 16 16 16 16 15 15 15 15 14 14 14 14 14 14 14 14 14 14 13
19 19 18 18 18 18 18 18 18 18 17 17 17 17 17 17 17 17 17 17 16 16 16 16 16 15 15 15 15 15 15 14 14 14 14 14 14 14 14 14 13 13 13
18 18 18 18 18 18 18 18 18 18 18 18 18 18 18 17 17 17 17 17 16 16 16 15 15 15 15 15 15 15 14 14 14 14 14 14 13 14 13 13 13 13 13
18 17 17 17 18 18 18 18 18 18 18 18 18 18 17 17 17 17 17 17 16 16 15 15 15 15 15 14 14 14 14 14 14 13 13 13 13 13 13 13 13 13 13
17 17 17 17 17 17 17 17 17 17 17 17 17 17 17 17 17 17 17 16 16 16 15 15 15 14 14 14 14 14 14 14 14 13 13 13 13 13 13 13 13 13 12
17 17 17 17 17 17 17 17 17 17 17 17 17 17 17 17 17 17 16 16 16 15 15 15 14 14 14 14 14 14 14 13 13 13 13 13 13 13 12 12 12 12 12
16 16 17 17 17 17 17 17 17 17 17 17 17 17 17 17 16 16 16 16 15 15 15 14 14 14 14 14 14 13 13 13 13 13 13 12 12 12 12 12 12 12 12
16 16 17 17 17 17 17 17 17 17 17 17 17 17 16 16 16 16 16 15 15 15 14 14 14 14 14 13 13 13 13 13 13 12 12 12 12 11 11 11 11 11 11
16 16 16 16 16 16 17 17 17 17 17 17 16 16 16 16 16 16 15 15 14 14 14 14 13 13 13 13 13 13 12 12 12 12 12 12 11 11 11 11 11 11 11
16 16 16 16 16 16 16 16 16 16 16 16 16 16 15 15 15 15 14 14 14 14 14 13 13 13 13 12 12 12 12 12 12 11 11 11 11 11 10 10 10 10 10
16 16 16 16 16 16 16 16 16 16 16 15 15 15 15 15 14 14 14 14 14 14 13 13 13 12 12 12 12 12 11 11 11 11 11 10 10 10 10 10 10 10 10
15 16 16 16 15 15 15 15 15 15 15 15 15 14 14 14 14 14 13 13 13 13 13 12 12 12 11 11 11 11 11 11 11 11 10 10 10 10 9 9 9 9 9
15 15 15 15 15 15 15 15 15 14 14 14 14 14 13 13 13 13 13 12 12 12 12 12 11 11 11 11 10 10 10 10 10 10 10 9 9 9 9 9 9 9 9
15 14 15 15 15 15 14 14 14 14 14 13 13 13 13 13 13 12 12 12 11 11 11 11 11 10 10 10 10 10 10 10 9 9 9 9 9 8 8 8 8 8 8
Wind_Speed
9 7 6 7 6 5 4 3 3 2 2 2 2 2 2 2 2 2 3 2 2 2 1 1 1 2 2 3 1 1 1 1 1 1 1 3 3 3 5 5 6 8 8
9 8 7 6 6 5 5 4 4 4 3 3 2 2 3 2 2 3 3 3 3 3 2 2 2 2 1 2 2 2 1 1 1 2 1 2 3 4 5 4 4 6 7
11 10 8 7 6 6 5 4 4 4 3 3 3 3 3 3 3 3 3 3 3 3 2 2 2 2 2 2 3 2 2 2 1 2 2 1 2 2 3 3 4 3 5
10 10 9 8 7 6 5 5 5 4 4 4 4 4 4 4 3 3 3 3 3 3 3 3 3 3 3 3 3 2 2 2 1 2 2 2 2 3 3 3 3 4 4
8 9 9 8 6 6 5 5 4 4 5 4 4 3 4 4 4 4 4 5 3 3 3 3 4 3 3 3 3 2 3 3 2 2 3 2 2 2 3 4 4 4 4
7 8 8 8 7 6 6 5 5 4 4 4 4 4 4 4 2 2 2 3 3 3 4 4 5 4 4 4 5 4 4 4 4 3 3 3 3 3 3 3 3 3 3
7 7 7 8 7 7 7 6 6 5 5 4 4 4 4 3 2 2 3 4 4 4 5 5 5 4 3 3 4 5 6 8 7 5 4 4 3 3 3 4 3 4 4
6 7 7 7 7 7 6 6 5 5 5 4 4 4 3 4 4 4 4 5 5 5 5 4 4 3 3 3 4 4 5 5 7 6 6 6 5 3 4 4 5 4 4
6 6 7 7 7 7 7 6 5 5 5 5 4 4 4 4 6 6 5 5 5 6 5 4 4 3 4 4 4 5 5 5 6 6 6 7 8 8 5 3 4 4 5
5 5 5 6 6 7 7 6 5 5 5 5 5 5 5 5 7 7 6 5 5 5 4 5 5 5 5 4 4 5 6 5 5 5 5 7 7 8 8 6 5 5 4
4 4 4 5 5 6 6 5 5 6 6 6 6 5 6 6 6 8 8 5 5 5 5 4 4 6 6 6 6 6 7 6 6 6 5 5 5 5 5 6 6 6 6
3 4 3 4 6 6 6 6 6 7 7 7 6 6 5 5 6 8 10 10 8 6 6 4 4 7 7 8 7 8 8 6 5 5 5 4 4 5 5 6 7 7 7
3 3 3 3 4 4 5 6 6 6 7 7 7 7 6 5 6 9 11 12 11 7 5 5 6 7 7 6 9 10 8 5 5 6 6 5 4 5 4 4 5 6 6
3 3 4 4 5 5 5 6 6 7 7 7 6 6 5 5 4 3 3 5 7 7 6 5 6 8 8 8 7 7 6 6 6 6 6 5 4 4 4 4 4 4 4
3 4 4 5 5 5 5 4 5 5 5 6 5 4 4 4 4 4 3 3 3 3 3 4 4 4 5 5 5 5 5 6 6 6 6 5 5 5 4 3 3 3 4
3 4 5 5 5 5 5 4 3 4 4 5 5 4 3 4 4 4 3 3 3 3 3 4 5 5 5 5 5 5 5 6 5 5 5 5 4 5 4 4 3 3 4
3 4 5 5 5 5 5 5 4 3 3 4 5 5 4 4 4 4 4 3 4 4 4 5 5 4 5 5 4 5 5 5 4 5 4 4 4 4 4 4 4 4 5
4 5 5 5 5 5 5 5 5 5 5 5 6 8 7 6 6 5 3 1 2 3 5 5 5 5 5 5 5 5 4 4 3 4 4 3 4 4 4 4 4 4 4
4 4 4 5 5 5 4 4 5 4 4 4 4 5 7 6 5 6 5 4 5 5 5 5 5 5 4 4 4 4 4 3 3 3 3 3 4 4 4 4 4 5 5
4 5 5 5 6 5 4 4 5 4 4 5 4 2 3 2 3 4 5 6 6 5 5 5 4 4 3 3 3 3 3 2 2 3 3 3 3 4 4 5 4 4 5
5 4 6 6 5 4 4 4 4 4 5 4 3 2 3 4 4 4 4 5 5 4 4 4 3 3 3 3 3 3 3 2 2 2 2 2 3 3 4 4 5 5 4
5 4 4 5 4 4 4 4 4 4 4 5 3 2 3 3 3 4 4 4 4 3 3 2 2 2 2 2 2 2 3 2 2 2 2 3 3 4 4 4 4 4 4
6 6 4 4 4 4 5 4 4 4 4 3 3 2 2 3 3 3 3 2 1 1 1 0 1 2 2 2 2 2 3 3 3 3 3 4 4 3 3 4 5 5 4
6 6 5 4 3 3 3 3 3 3 3 3 3 3 2 2 3 3 2 2 1 1 1 1 1 2 3 3 3 4 4 4 4 4 4 4 4 4 4 4 4 4 3
5 5 5 4 3 3 3 3 3 3 3 3 2 2 2 2 1 2 2 1 2 2 2 2 2 3 5 7 7 6 6 6 6 5 5 4 4 4 5 4 3 3 3
4 4 4 4 4 3 3 2 2 2 3 3 2 1 2 2 1 1 1 2 3 3 3 3 4 6 7 6 7 7 7 7 7 7 5 4 4 3 4 4 5 4 4
Wind_Direction
179 181 176 176 183 184 194 191 182 184 181 181 177 182 186 185 199 209 219 219 212 239 259 216 241 274 308 320 309 261 235 213 227 239 146 148 153 143 153 184 175 170 183
174 173 180 179 179 183 191 189 179 187 197 187 197 217 216 204 213 221 225 229 217 223 238 249 266 278 273 301 310 304 295 248 219 246 204 164 165 168 171 195 189 195 188
175 176 177 179 181 184 190 189 189 191 196 194 203 217 224 223 221 229 227 235 235 232 238 237 245 267 270 268 286 293 280 267 210 236 231 167 168 187 181 204 221 210 210
171 173 174 178 182 185 191 194 194 194 197 207 212 214 219 224 224 227 231 233 236 238 238 235 235 236 248 252 260 275 286 286 255 245 246 207 188 192 185 213 230 222 229
170 172 173 175 178 183 189 193 194 201 208 205 210 216 223 224 232 231 228 225 220 233 239 236 237 233 242 247 264 271 275 274 264 247 240 229 213 192 211 222 234 226 227
174 174 169 173 178 187 192 194 198 204 213 212 214 218 226 237 223 200 220 232 228 233 241 244 239 224 231 230 242 244 247 255 269 271 265 254 242 225 218 236 245 248 249
178 177 174 180 185 190 199 197 204 206 207 218 221 217 216 229 236 210 219 236 235 240 243 246 255 250 215 234 240 238 243 237 234 251 270 271 271 262 234 248 249 257 258
180 183 183 186 190 191 198 203 202 204 207 214 223 222 222 228 217 219 232 237 243 244 245 246 240 246 251 245 250 247 251 247 238 235 248 260 261 263 255 248 251 258 256
187 187 188 190 192 192 197 204 205 205 210 214 216 220 224 225 215 219 228 244 244 245 240 247 242 229 240 256 254 257 261 264 254 242 238 244 244 245 245 255 256 252 262
189 190 192 187 193 198 198 201 204 209 214 219 216 219 222 226 218 220 222 243 250 248 236 231 229 226 228 227 244 254 258 266 277 267 255 250 242 239 228 224 239 250 263
183 185 197 190 193 202 198 200 205 211 216 223 224 226 225 226 216 221 219 235 258 261 251 239 225 207 215 225 236 249 254 268 270 262 254 244 235 233 227 221 223 229 242
170 187 200 206 214 212 200 205 208 214 219 225 226 233 231 221 220 228 224 225 243 259 260 250 224 212 219 228 238 250 262 272 268 267 260 250 245 239 234 225 223 221 228
175 195 207 221 219 215 207 211 214 220 229 230 226 232 234 226 220 218 220 226 231 245 263 248 236 235 236 241 238 243 251 253 258 261 258 251 247 246 237 230 230 227 233
191 206 213 227 222 219 216 215 221 222 230 236 232 232 231 226 224 218 228 228 231 244 265 264 241 234 237 242 244 241 235 241 248 257 260 256 251 249 245 239 238 231 237
211 220 226 234 231 220 227 240 229 226 225 233 241 240 240 238 234 220 230 232 231 229 239 244 243 238 236 234 233 235 236 235 242 249 254 255 254 251 248 242 239 239 240
227 232 236 239 227 221 220 237 270 248 234 216 223 240 244 238 224 218 231 235 231 215 218 243 249 251 250 251 247 243 238 238 242 245 248 250 250 254 254 245 236 238 249
248 252 254 253 242 232 230 227 232 248 253 250 238 235 232 234 224 214 220 234 233 189 225 252 255 259 261 261 256 254 254 250 246 245 246 248 254 256 256 255 247 247 255
254 254 261 262 263 256 249 243 236 234 233 241 236 227 224 225 220 217 207 192 261 221 239 253 261 259 256 255 257 258 261 262 258 261 260 260 257 261 264 264 257 248 251
258 260 262 267 268 266 258 256 254 249 245 240 234 213 215 222 219 218 194 219 243 248 247 253 259 258 257 254 254 258 259 253 250 259 264 268 269 269 267 267 271 270 262
256 256 262 270 272 271 269 267 264 261 260 257 251 229 194 208 229 223 210 225 238 246 248 254 264 273 276 270 259 256 259 261 257 257 269 272 270 263 262 264 267 271 265
261 252 245 263 269 275 280 277 273 269 269 266 259 231 203 230 239 235 231 233 241 247 247 253 261 273 279 281 280 269 262 263 267 275 275 272 272 271 268 267 263 265 271
273 268 264 266 273 274 276 274 270 273 278 280 271 240 208 244 260 253 244 241 241 245 250 247 265 294 305 286 298 320 314 312 321 317 301 282 272 268 268 270 273 272 267
270 273 270 268 275 269 271 275 278 278 281 293 297 278 251 260 274 283 281 268 268 279 295 357 347 333 340 355 28 23 352 337 335 325 312 299 289 280 275 275 275 279 277
270 274 277 277 271 271 281 290 289 288 297 301 299 295 278 267 280 294 297 289 291 359 28 46 40 359 13 30 49 50 22 359 346 334 323 305 298 294 290 281 279 285 283
272 274 280 282 273 274 278 284 290 297 298 294 299 311 309 305 304 310 315 359 25 27 36 38 33 41 48 47 44 32 19 16 8 351 332 318 310 309 304 303 302 297 295
282 281 284 285 290 296 297 293 293 298 297 299 304 313 299 304 320 323 357 41 35 27 28 40 55 60 56 55 51 42 29 20 6 351 336 318 315 321 325 318 316 311 304
Height
1521 1523 1526 1527 1529 1531 1532 1533 1534 1535 1536 1536 1537 1537 1537 1537 1537 1537 1537 1537 1537 1537 1537 1537 1536 1536 1536 1536 1535 1535 1535 1534 1534 1534 1533 1533 1532 1531 1530 1529 1528 1528 1527
1519 1521 1524 1526 1527 1529 1530 1532 1533 1533 1534 1534 1535 1535 1536 1536 1536 1536 1536 1536 1536 1536 1536 1536 1535 1535 1534 1534 1533 1533 1533 1533 1532 1531 1531 1531 1530 1529 1528 1528 1527 1526 1525
1517 1519 1521 1523 1525 1527 1528 1530 1531 1532 1532 1533 1533 1533 1534 1534 1534 1535 1535 1535 1535 1535 1535 1534 1534 1533 1532 1532 1532 1531 1531 1531 1530 1530 1529 1529 1528 1527 1526 1526 1525 1524 1524
1516 1517 1519 1521 1523 1524 1526 1527 1529 1529 1530 1531 1531 1532 1532 1532 1533 1533 1533 1533 1533 1533 1533 1532 1531 1531 1530 1530 1529 1529 1529 1528 1528 1527 1527 1526 1525 1525 1524 1523 1523 1522 1521
1514 1516 1517 1519 1521 1522 1524 1525 1526 1527 1528 1528 1529 1529 1530 1530 1530 1530 1531 1531 1530 1530 1530 1529 1529 1528 1528 1528 1527 1527 1526 1526 1526 1525 1524 1524 1523 1522 1521 1521 1520 1519 1519
1511 1514 1515 1517 1518 1519 1521 1522 1523 1524 1525 1526 1526 1526 1527 1527 1528 1528 1528 1528 1528 1527 1527 1526 1526 1526 1525 1525 1524 1524 1524 1523 1522 1522 1521 1520 1520 1519 1519 1518 1518 1517 1516
1509 1511 1513 1514 1516 1517 1518 1519 1520 1521 1522 1523 1523 1523 1524 1524 1524 1525 1525 1525 1524 1524 1524 1523 1523 1523 1522 1521 1521 1521 1520 1520 1519 1519 1518 1517 1517 1516 1515 1515 1514 1513 1512
1506 1508 1510 1511 1513 1514 1515 1516 1517 1518 1518 1519 1520 1520 1520 1521 1521 1521 1521 1521 1521 1520 1520 1520 1519 1519 1518 1518 1517 1516 1516 1515 1515 1515 1514 1514 1513 1513 1512 1511 1511 1509 1508
1503 1504 1506 1508 1509 1510 1511 1513 1514 1515 1515 1516 1516 1517 1517 1517 1517 1517 1517 1517 1516 1516 1516 1515 1515 1515 1514 1514 1514 1512 1511 1511 1511 1510 1510 1509 1509 1508 1508 1507 1506 1505 1504
1500 1502 1503 1504 1505 1506 1507 1509 1510 1511 1512 1513 1513 1513 1513 1513 1513 1513 1513 1512 1512 1511 1511 1510 1510 1510 1510 1509 1509 1508 1507 1506 1506 1505 1505 1504 1504 1503 1503 1502 1502 1501 1499
1498 1499 1500 1501 1502 1503 1504 1506 1507 1508 1508 1509 1509 1509 1509 1509 1509 1508 1508 1507 1507 1506 1506 1506 1505 1505 1505 1505 1504 1503 1502 1502 1502 1501 1500 1499 1498 1498 1498 1497 1496 1496 1495
1495 1496 1497 1498 1499 1500 1501 1502 1503 1504 1504 1504 1505 1505 1504 1504 1504 1503 1502 1502 1502 1501 1501 1501 1501 1501 1500 1500 1499 1499 1499 1498 1497 1496 1495 1494 1493 1493 1492 1492 1491 1491 1490
1492 1493 1494 1494 1495 1497 1497 1498 1499 1500 1501 1501 1501 1500 1500 1499 1499 1498 1497 1496 1496 1496 1496 1495 1495 1495 1495 1494 1494 1494 1493 1493 1492 1491 1490 1489 1489 1488 1488 1487 1486 1486 1485
1489 1490 1491 1491 1492 1493 1494 1495 1495 1495 1496 1496 1497 1496 1496 1495 1494 1493 1491 1490 1490 1491 1490 1490 1490 1489 1489 1488 1488 1488 1488 1487 1487 1486 1485 1485 1484 1484 1483 1482 1481 1480 1480
1486 1487 1488 1488 1489 1489 1490 1490 1491 1491 1491 1492 1491 1491 1491 1490 1489 1488 1487 1485 1485 1485 1485 1484 1484 1484 1484 1483 1482 1483 1483 1482 1481 1481 1480 1480 1479 1478 1478 1477 1477 1475 1474
1483 1484 1485 1485 1485 1486 1486 1486 1486 1487 1487 1487 1487 1487 1486 1486 1486 1484 1484 1483 1482 1482 1481 1479 1479 1479 1479 1479 1478 1478 1477 1477 1476 1475 1475 1475 1474 1473 1472 1472 1471 1471 1469
1480 1481 1481 1482 1482 1482 1481 1481 1481 1481 1481 1481 1482 1482 1482 1481 1481 1480 1480 1479 1478 1477 1476 1475 1475 1474 1474 1474 1473 1473 1473 1472 1471 1471 1470 1469 1469 1468 1467 1467 1466 1465 1464
1477 1477 1478 1478 1478 1478 1477 1477 1477 1476 1476 1476 1476 1476 1476 1477 1477 1476 1476 1475 1474 1473 1472 1471 1471 1471 1470 1470 1469 1468 1468 1467 1466 1465 1465 1464 1464 1463 1462 1461 1461 1460 1459
1474 1474 1474 1474 1474 1474 1473 1473 1473 1472 1472 1471 1472 1471 1471 1471 1472 1472 1471 1470 1469 1468 1468 1467 1467 1466 1465 1464 1464 1464 1463 1462 1461 1460 1459 1459 1459 1458 1457 1456 1456 1455 1455
1471 1471 1471 1471 1471 1470 1470 1469 1469 1469 1468 1468 1467 1466 1466 1466 1465 1465 1465 1465 1464 1464 1463 1462 1462 1462 1461 1460 1459 1458 1458 1457 1456 1455 1454 1453 1453 1453 1452 1451 1451 1450 1449
1468 1467 1467 1467 1467 1466 1466 1465 1465 1465 1464 1464 1463 1462 1461 1461 1461 1461 1460 1460 1460 1459 1458 1458 1458 1457 1457 1456 1455 1454 1453 1452 1451 1450 1449 1448 1448 1447 1447 1446 1445 1445 1444
1465 1465 1464 1463 1463 1462 1462 1462 1461 1461 1460 1460 1459 1458 1457 1457 1457 1456 1456 1455 1455 1455 1454 1453 1453 1453 1453 1451 1450 1448 1448 1447 1446 1445 1444 1443 1442 1442 1441 1441 1440 1440 1439
1462 1461 1460 1460 1459 1459 1458 1458 1457 1457 1456 1455 1455 1454 1454 1453 1453 1453 1452 1452 1451 1450 1450 1449 1449 1449 1447 1446 1445 1445 1443 1442 1441 1440 1439 1439 1438 1437 1437 1436 1435 1435 1434
1458 1458 1457 1456 1455 1455 1454 1454 1453 1452 1452 1451 1451 1451 1450 1449 1449 1448 1448 1448 1447 1447 1447 1446 1445 1445 1443 1442 1441 1440 1440 1438 1438 1436 1435 1434 1433 1432 1432 1431 1431 1430 1430
1455 1454 1454 1453 1452 1451 1451 1450 1449 1448 1448 1447 1447 1446 1445 1445 1444 1444 1443 1443 1443 1443 1443 1443 1442 1441 1440 1439 1438 1437 1436 1435 1434 1432 1431 1429 1429 1428 1427 1427 1426 1426 1425
1452 1452 1451 1450 1449 1449 1448 1447 1446 1445 1445 1444 1443 1442 1442 1441 1440 1440 1440 1440 1439 1439 1438 1439 1439 1438 1437 1436 1435 1434 1433 1432 1430 1429 1427 1425 1425 1424 1423 1422 1422 1422 1421